TimePDT,TemperatureF,Dew PointF,Humidity,Sea Level PressureIn,VisibilityMPH,Wind Direction,Wind SpeedMPH,Gust SpeedMPH,PrecipitationIn,Events,Conditions,WindDirDegrees,DateUTC
12:15 AM,59.0,46.4,63,29.95,10.0,East,3.5,-,N/A,,Clear,90,2012-10-07 07:15:00
12:35 AM,55.4,46.4,72,29.95,10.0,SE,4.6,-,N/A,,Clear,130,2012-10-07 07:35:00
12:55 AM,59.0,46.4,63,29.95,10.0,East,3.5,-,N/A,,Clear,90,2012-10-07 07:55:00
1:15 AM,57.2,46.4,67,29.95,10.0,SSE,4.6,-,N/A,,Clear,150,2012-10-07 08:15:00
1:55 AM,57.2,46.4,67,29.96,10.0,SE,5.8,-,N/A,,Clear,140,2012-10-07 08:55:00
2:15 AM,59.0,46.4,63,29.96,10.0,SE,6.9,-,N/A,,Clear,140,2012-10-07 09:15:00
2:35 AM,57.2,46.4,67,29.95,10.0,SE,5.8,-,N/A,,Clear,140,2012-10-07 09:35:00
2:55 AM,57.2,46.4,67,29.95,10.0,SE,5.8,-,N/A,,Clear,140,2012-10-07 09:55:00
3:15 AM,55.4,46.4,72,29.95,10.0,SSE,5.8,-,N/A,,Clear,150,2012-10-07 10:15:00
3:35 AM,55.4,46.4,72,29.94,10.0,SSE,5.8,-,N/A,,Clear,150,2012-10-07 10:35:00
3:55 AM,55.4,46.4,72,29.94,10.0,SE,5.8,-,N/A,,Clear,140,2012-10-07 10:55:00
4:15 AM,53.6,46.4,77,29.95,10.0,Calm,Calm,-,N/A,,Clear,0,2012-10-07 11:15:00
4:35 AM,50.0,44.6,82,29.95,10.0,Calm,Calm,-,N/A,,Clear,0,2012-10-07 11:35:00
4:55 AM,51.8,46.4,82,29.95,10.0,Calm,Calm,-,N/A,,Clear,0,2012-10-07 11:55:00
5:15 AM,51.8,46.4,82,29.95,10.0,Calm,Calm,-,N/A,,Clear,0,2012-10-07 12:15:00
5:35 AM,51.8,46.4,82,29.95,10.0,Calm,Calm,-,N/A,,Clear,0,2012-10-07 12:35:00
5:55 AM,48.2,42.8,82,29.95,10.0,ENE,5.8,-,N/A,,Clear,60,2012-10-07 12:55:00
6:15 AM,48.2,44.6,87,29.96,10.0,ENE,3.5,-,N/A,,Clear,70,2012-10-07 13:15:00
6:35 AM,46.4,42.8,87,29.96,10.0,ENE,3.5,-,N/A,,Clear,60,2012-10-07 13:35:00
6:55 AM,48.2,44.6,87,29.96,10.0,Calm,Calm,-,N/A,,Clear,0,2012-10-07 13:55:00
7:15 AM,46.4,44.6,93,29.97,10.0,Calm,Calm,-,N/A,,Clear,0,2012-10-07 14:15:00
7:35 AM,46.4,44.6,93,29.98,10.0,Calm,Calm,-,N/A,,Clear,0,2012-10-07 14:35:00
7:55 AM,50.0,46.4,87,29.98,10.0,Calm,Calm,-,N/A,,Clear,0,2012-10-07 14:55:00
8:15 AM,53.6,46.4,77,29.98,10.0,Calm,Calm,-,N/A,,Clear,0,2012-10-07 15:15:00
8:35 AM,55.4,48.2,77,29.99,10.0,Calm,Calm,-,N/A,,Clear,0,2012-10-07 15:35:00
8:55 AM,59.0,48.2,67,29.99,10.0,Calm,Calm,-,N/A,,Clear,0,2012-10-07 15:55:00
9:15 AM,60.8,50.0,68,29.99,10.0,SE,3.5,-,N/A,,Clear,140,2012-10-07 16:15:00
9:35 AM,62.6,50.0,63,29.99,10.0,SSE,4.6,-,N/A,,Clear,160,2012-10-07 16:35:00
9:55 AM,62.6,50.0,63,29.99,10.0,Calm,Calm,-,N/A,,Clear,0,2012-10-07 16:55:00
10:15 AM,64.4,50.0,59,29.99,10.0,South,3.5,-,N/A,,Clear,190,2012-10-07 17:15:00
10:35 AM,66.2,48.2,52,29.98,10.0,SSE,4.6,-,N/A,,Clear,160,2012-10-07 17:35:00
10:55 AM,68.0,48.2,49,29.98,10.0,Calm,Calm,-,N/A,,Clear,0,2012-10-07 17:55:00
11:15 AM,68.0,48.2,49,29.97,10.0,Calm,Calm,-,N/A,,Clear,0,2012-10-07 18:15:00
11:35 AM,69.8,48.2,46,29.97,10.0,WSW,3.5,-,N/A,,Clear,240,2012-10-07 18:35:00
11:55 AM,69.8,48.2,46,29.96,10.0,Calm,Calm,-,N/A,,Clear,0,2012-10-07 18:55:00
12:15 PM,71.6,48.2,43,29.96,10.0,WNW,4.6,-,N/A,,Clear,290,2012-10-07 19:15:00
12:35 PM,73.4,48.2,41,29.95,10.0,Calm,Calm,-,N/A,,Clear,0,2012-10-07 19:35:00
12:55 PM,73.4,48.2,41,29.94,10.0,Calm,Calm,-,N/A,,Clear,0,2012-10-07 19:55:00
1:15 PM,73.4,50.0,44,29.93,10.0,Calm,Calm,-,N/A,,Clear,0,2012-10-07 20:15:00
1:35 PM,75.2,48.2,38,29.92,10.0,West,5.8,-,N/A,,Clear,260,2012-10-07 20:35:00
1:55 PM,77.0,48.2,36,29.91,10.0,WSW,5.8,-,N/A,,Clear,240,2012-10-07 20:55:00
2:15 PM,77.0,50.0,39,29.91,10.0,WNW,5.8,-,N/A,,Clear,290,2012-10-07 21:15:00
2:35 PM,77.0,48.2,36,29.90,10.0,Calm,Calm,-,N/A,,Clear,0,2012-10-07 21:35:00
2:55 PM,78.8,48.2,34,29.90,10.0,West,5.8,-,N/A,,Clear,280,2012-10-07 21:55:00
3:15 PM,78.8,48.2,34,29.90,10.0,WNW,3.5,-,N/A,,Clear,290,2012-10-07 22:15:00
3:35 PM,78.8,48.2,34,29.89,10.0,West,3.5,-,N/A,,Clear,260,2012-10-07 22:35:00
3:55 PM,78.8,48.2,34,29.89,10.0,Calm,Calm,-,N/A,,Clear,0,2012-10-07 22:55:00
4:15 PM,78.8,48.2,34,29.89,10.0,SW,5.8,-,N/A,,Clear,220,2012-10-07 23:15:00
4:35 PM,78.8,48.2,34,29.88,10.0,WSW,5.8,-,N/A,,Clear,240,2012-10-07 23:35:00
5:15 PM,78.8,46.4,32,29.88,10.0,WSW,4.6,-,N/A,,Clear,250,2012-10-08 00:15:00
5:35 PM,77.0,48.2,36,29.88,10.0,Calm,Calm,-,N/A,,Clear,0,2012-10-08 00:35:00
5:55 PM,77.0,48.2,36,29.88,10.0,SW,3.5,-,N/A,,Clear,230,2012-10-08 00:55:00
6:15 PM,77.0,48.2,36,29.88,10.0,SW,3.5,-,N/A,,Clear,230,2012-10-08 01:15:00
6:35 PM,73.4,50.0,44,29.88,10.0,Calm,Calm,-,N/A,,Clear,0,2012-10-08 01:35:00
6:55 PM,73.4,50.0,44,29.88,10.0,SW,3.5,-,N/A,,Clear,220,2012-10-08 01:55:00
7:15 PM,69.8,48.2,46,29.89,10.0,SSW,4.6,-,N/A,,Clear,210,2012-10-08 02:15:00
7:35 PM,69.8,48.2,46,29.89,10.0,SSW,5.8,-,N/A,,Clear,200,2012-10-08 02:35:00
7:55 PM,66.2,46.4,49,29.90,10.0,South,8.1,-,N/A,,Clear,180,2012-10-08 02:55:00
8:15 PM,66.2,46.4,49,29.91,10.0,South,6.9,-,N/A,,Clear,170,2012-10-08 03:15:00
8:35 PM,64.4,46.4,52,29.91,10.0,South,6.9,-,N/A,,Clear,170,2012-10-08 03:35:00
8:55 PM,64.4,46.4,52,29.91,10.0,SSE,6.9,-,N/A,,Clear,160,2012-10-08 03:55:00
9:15 PM,64.4,44.6,49,29.92,10.0,SSE,6.9,-,N/A,,Clear,160,2012-10-08 04:15:00
9:35 PM,64.4,44.6,49,29.93,10.0,SE,9.2,-,N/A,,Clear,140,2012-10-08 04:35:00
9:55 PM,64.4,44.6,49,29.93,10.0,SE,6.9,-,N/A,,Clear,140,2012-10-08 04:55:00
10:15 PM,64.4,44.6,49,29.93,10.0,SE,9.2,-,N/A,,Clear,130,2012-10-08 05:15:00
10:35 PM,64.4,44.6,49,29.93,10.0,SE,9.2,-,N/A,,Clear,130,2012-10-08 05:35:00
10:55 PM,62.6,46.4,55,29.93,10.0,SE,9.2,-,N/A,,Clear,130,2012-10-08 05:55:00
11:15 PM,62.6,46.4,55,29.94,10.0,SE,5.8,-,N/A,,Clear,140,2012-10-08 06:15:00
11:35 PM,62.6,46.4,55,29.94,10.0,SE,6.9,-,N/A,,Clear,130,2012-10-08 06:35:00
11:55 PM,60.8,46.4,59,29.95,10.0,SE,6.9,-,N/A,,Clear,140,2012-10-08 06:55:00